Wednesday, December 19, 2018, 12:32 AM EST
Back to Local

KUUU, Newport State Airport

Location: Middletown, RI, United States Lat: 41.533
Local Time: 12:32 AM EST ( 5:32 GMT) Lon: -71.283
Time Zone: US/Eastern Elev: 170 ft

Show me the last for .
Show Decoded

2018-12-18 23:53 METAR KUUU 190453Z AUTO 31009KT 10SM CLR M04/M11 A3004 RMK AO2 SLP172 T10441111
                 400331044 =
2018-12-18 22:53 METAR KUUU 190353Z AUTO 31013KT 10SM CLR M04/M11 A3003 RMK AO2 SLP171 T10391111
                 =
2018-12-18 21:53 METAR KUUU 190253Z AUTO 31011G19KT 10SM CLR M04/M11 A3004 RMK AO2 SLP174
                 T10391111 50006 =
2018-12-18 20:53 METAR KUUU 190153Z AUTO 30014G21KT 10SM CLR M03/M11 A3005 RMK AO2 SLP175
                 T10331111 =
2018-12-18 19:53 METAR KUUU 190053Z AUTO 29014G24KT 10SM CLR M03/M11 A3003 RMK AO2 SLP170
                 T10281106 =
2018-12-18 18:53 METAR KUUU 182353Z AUTO 29014G22KT 10SM CLR M02/M11 A3002 RMK AO2 SLP168
                 T10171111 10006 21017 51029 =
2018-12-18 17:53 METAR KUUU 182253Z AUTO 29012G21KT 10SM CLR M02/M11 A3000 RMK AO2 SLP161
                 T10171111 =
2018-12-18 16:53 METAR KUUU 182153Z AUTO 30012G18KT 10SM CLR M01/M11 A2997 RMK AO2 SLP149
                 T10111106 =
2018-12-18 15:53 METAR KUUU 182053Z AUTO 32016G25KT 10SM CLR M01/M11 A2994 RMK AO2 PK WND
                 32028/2000 SLP137 T10061111 53030 =
2018-12-18 14:53 METAR KUUU 181953Z AUTO 31020G31KT 10SM CLR 01/M11 A2991 RMK AO2 PK WND
                 32031/1953 SLP127 T00061111 =
2018-12-18 13:53 METAR KUUU 181853Z AUTO 32020G29KT 10SM CLR 01/M11 A2988 RMK AO2 PK WND
                 32030/1803 SLP117 T00061111 =
2018-12-18 12:53 METAR KUUU 181753Z AUTO 32017G28KT 10SM CLR 00/M12 A2985 RMK AO2 PK WND
                 33032/1713 SLP107 T00001117 10000 21039 53005 =
2018-12-18 11:53 METAR KUUU 181653Z AUTO 34020G31KT 10SM CLR M01/M12 A2984 RMK AO2 PK WND
                 32035/1605 SLP103 T10061117 =
2018-12-18 10:53 METAR KUUU 181553Z AUTO 33022G30KT 10SM CLR M02/M12 A2984 RMK AO2 PK WND
                 32038/1514 SLP104 T10171122 =
2018-12-18 09:53 METAR KUUU 181453Z AUTO 32024G33KT 10SM CLR M02/M12 A2983 RMK AO2 PK WND
                 32036/1430 SLP102 T10221122 51025 =
2018-12-18 08:53 METAR KUUU 181353Z AUTO 33025G41KT 10SM CLR M03/M13 A2982 RMK AO2 PK WND
                 31041/1347 SLP097 T10331128 =
2018-12-18 07:53 METAR KUUU 181253Z AUTO 31018G31KT 10SM CLR M04/M12 A2979 RMK AO2 PK WND
                 31040/1215 SLP086 T10391122 =
2018-12-18 06:53 METAR KUUU 181153Z AUTO 32019G32KT 10SM FEW045 M04/M12 A2976 RMK AO2 PK WND
                 32037/1112 SLP077 T10391122 10033 21039 53037 =
2018-12-18 05:53 METAR KUUU 181053Z AUTO 32024G34KT 10SM FEW046 M03/M12 A2972 RMK AO2 PK WND
                 32037/1006 SLP063 T10281117 =
2018-12-18 04:53 METAR KUUU 180953Z AUTO 31022G37KT 10SM CLR M02/M11 A2968 RMK AO2 PK WND
                 32039/0936 SLP049 T10171106 =
2018-12-18 03:53 METAR KUUU 180853Z AUTO 31018G34KT 10SM SCT043 SCT050 M01/M09 A2965 RMK AO2 PK
                 WND 31035/0838 SLP040 T10061094 53023 =
2018-12-18 02:53 METAR KUUU 180753Z AUTO 29021G31KT 10SM BKN047 OVC055 01/M07 A2962 RMK AO2 PK
                 WND 30031/0753 SLP029 T00111072 =
2018-12-18 01:53 METAR KUUU 180653Z AUTO 30022G34KT 10SM SCT042 SCT049 02/M06 A2960 RMK AO2 PK
                 WND 28035/0612 SLP025 T00171056 =
2018-12-18 00:53 METAR KUUU 180553Z AUTO 29017G28KT 10SM OVC080 03/M04 A2958 RMK AO2 PK WND
                 28028/0552 SLP017 T00331039 10044 20033 57008 =

Support USWX by starting your Amazon purchase here.